Powrót do katalogu

STARLINK-4566

AktywnyŁącznośćSSO
NORAD 53693·PAYLOAD·🇺🇸 United States

Wystrzelony Aug 31, 2022 z Vandenberg Space Force Base

Loading…

Następne Przeloty (najbliższe 24 godziny)

TLE

ŚwieżeSource: CelesTrak SupGP

Epoka: Sep 14, 2026, 21:51 UTC

1 53693C 22105AX  26257.91090278  .00002153  00000+0  66857-4 0  2577
2 53693  97.2842 134.7218 0001994  91.8981  49.6240 15.33429171    17

Śledź STARLINK-4566 w czasie rzeczywistym z AllMySat

Download on the App Store